{"data":{"norad_id":63310,"intl_designator":"2025-057D","name":"STARLINK-11587 [DTC]","alt_names":[],"object_type":"PAYLOAD","status":"ACTIVE","operator":null,"country":"US","launch_date":"2025-03-18","launch_site_code":"AFETR","launch_vehicle":null,"mission":null,"orbit_class":"UNKNOWN","rcs_meters":null,"size_class":null,"mass_kg":null,"dimensions":null,"purposes":["comms"],"wikipedia_slug":null,"has_3d_model":false,"image_url":null,"decayed_at":null,"tle_current":{"epoch":"2026-05-24T13:02:53.658240Z","epoch_age_seconds":104739,"freshness":"FRESH","line1":"1 63310U 25057D   26144.54367660  .00182906  00000+0  13962-2 0  9994","line2":"2 63310  43.0003 167.6529 0001201 248.0743 111.9997 15.70866244 69109","mean_motion":15.70866244,"eccentricity":0.0001201,"inclination_deg":43.0003,"raan_deg":167.6529,"arg_perigee_deg":248.0743,"mean_anomaly_deg":111.9997,"bstar":0.0013962,"rev_number":6910,"period_min":91.669166964415,"perigee_km":355.61123204724,"apogee_km":357.22887265122,"semimajor_km":6734.5570523492,"source":"CELESTRAK","updated_at":"2026-05-25T13:38:19.955003Z"}}}